sat.trackr.live / text

‹ back to catalog

STARLINK-3618

NORAD 51998 · 2022-025AU

PAYLOAD ACTIVE UNKNOWN

§ Identity

Operator
Country
US
Launch date
2022-03-09
Launch site
AFETR
Launch vehicle
Mass (kg)
RCS (m²)

Purposes: comms

External: N2YO · Heavens-Above · Gunter

§ Orbital elements

Epoch: 2026-05-25T03:20:24.093600Z

Period
95.44 min
Inclination
53.2144°
Eccentricity
0.0001480
Mean motion
15.08843932 rev/d
Perigee alt
538.7 km
Apogee alt
540.8 km
Semi-major
6,917.9 km
B*
-1.4800e-6
RAAN
35.9242°
Arg perigee
81.7956°
Mean anomaly
278.3204°
Rev number
23,246

§ Raw data

STARLINK-36181 51998U 22025AU  26145.13916775 -.00000312  00000+0 -14800-5 0  99952 51998  53.2144  35.9242 0001480  81.7956 278.3204 15.08843932232463

JSON: /api/v1/satellites/51998 · /tle

For live sub-satellite position, see the globe view (requires WebGL).

§ Visibility from observer

Set your observer location to see the next 7 days of passes ≥ 10°. The values pass through the URL so the page stays shareable.

No JS? Fill the form by hand. The geolocation button needs JavaScript.